timestamp,wind_dir_avg,wind_spd_max_dir,wind_spd_avg,wind_spd_gust,battery_voltage,lat,long
2017-11-19 00:00:00+00:00,339.0,339.0,4.7,5.43,,47.59359,-54.27349
2017-11-19 00:10:00+00:00,342.0,342.0,4.71,5.58,,47.59359,-54.27349
2017-11-19 00:20:00+00:00,331.0,325.0,4.11,4.58,,47.59359,-54.27349
2017-11-19 00:30:00+00:00,334.0,336.0,5.04,5.64,,47.59359,-54.27349
2017-11-19 00:40:00+00:00,324.0,324.0,6.13,7.24,,47.59359,-54.27349
2017-11-19 00:50:00+00:00,325.0,328.0,7.25,7.93,,47.59359,-54.27349
2017-11-19 01:00:00+00:00,334.0,327.0,6.87,7.62,,47.59359,-54.27349
2017-11-19 01:10:00+00:00,339.0,339.0,6.83,7.82,,47.59359,-54.27349
2017-11-19 01:20:00+00:00,351.0,347.0,4.92,5.56,,47.59359,-54.27349
2017-11-19 01:30:00+00:00,344.0,344.0,4.96,5.72,,47.59359,-54.27349
2017-11-19 01:40:00+00:00,329.0,325.0,4.49,5.1,,47.59359,-54.27349
2017-11-19 01:50:00+00:00,328.0,326.0,6.82,7.61,,47.59359,-54.27349
2017-11-19 02:00:00+00:00,323.0,321.0,6.97,7.67,,47.59359,-54.27349
2017-11-19 02:10:00+00:00,318.0,320.0,6.09,7.04,,47.59359,-54.27349
2017-11-19 02:20:00+00:00,319.0,318.0,4.71,5.57,,47.59359,-54.27349
2017-11-19 02:30:00+00:00,305.0,305.0,6.15,7.46,,47.59359,-54.27349
2017-11-19 02:40:00+00:00,324.0,327.0,7.79,8.99,,47.59359,-54.27349
2017-11-19 02:50:00+00:00,315.0,307.0,7.2,8.91,,47.59359,-54.27349
2017-11-19 03:00:00+00:00,312.0,311.0,7.55,8.56,,47.59359,-54.27349
2017-11-19 03:10:00+00:00,318.0,319.0,7.4,8.44,,47.59359,-54.27349
2017-11-19 03:20:00+00:00,318.0,320.0,6.89,8.22,,47.59359,-54.27349
2017-11-19 03:30:00+00:00,309.0,307.0,5.45,6.07,,47.59359,-54.27349
2017-11-19 03:40:00+00:00,306.0,300.0,5.45,6.41,,47.59359,-54.27349
2017-11-19 03:50:00+00:00,308.0,305.0,5.37,6.26,,47.59359,-54.27349
2017-11-19 04:00:00+00:00,298.0,305.0,7.38,9.06,,47.59359,-54.27349
2017-11-19 04:10:00+00:00,312.0,315.0,7.31,8.58,,47.59359,-54.27349
2017-11-19 04:20:00+00:00,320.0,331.0,8.16,10.2,,47.59359,-54.27349
2017-11-19 04:30:00+00:00,317.0,298.0,7.22,9.86,,47.59359,-54.27349
2017-11-19 04:40:00+00:00,319.0,317.0,6.49,8.14,,47.59359,-54.27349
2017-11-19 04:50:00+00:00,329.0,325.0,7.63,9.41,,47.59359,-54.27349
2017-11-19 05:00:00+00:00,307.0,308.0,7.68,9.91,,47.59359,-54.27349
2017-11-19 05:10:00+00:00,310.0,308.0,7.46,9.85,,47.59359,-54.27349
2017-11-19 05:20:00+00:00,319.0,311.0,7.32,8.53,,47.59359,-54.27349
2017-11-19 05:30:00+00:00,331.0,337.0,6.9,8.28,,47.59359,-54.27349
2017-11-19 05:40:00+00:00,310.0,316.0,5.99,7.07,,47.59359,-54.27349
2017-11-19 05:50:00+00:00,317.0,312.0,7.01,8.81,,47.59359,-54.27349
2017-11-19 06:00:00+00:00,320.0,321.0,7.95,8.85,,47.59359,-54.27349
2017-11-19 06:10:00+00:00,326.0,327.0,7.69,10.91,,47.59359,-54.27349
2017-11-19 06:20:00+00:00,326.0,343.0,6.73,8.15,,47.59359,-54.27349
2017-11-19 06:30:00+00:00,318.0,316.0,6.62,7.86,,47.59359,-54.27349
2017-11-19 06:40:00+00:00,320.0,318.0,7.25,8.92,,47.59359,-54.27349
2017-11-19 06:50:00+00:00,322.0,317.0,7.32,9.1,,47.59359,-54.27349
2017-11-19 07:00:00+00:00,333.0,338.0,7.12,8.83,,47.59359,-54.27349
2017-11-19 07:10:00+00:00,315.0,320.0,6.87,8.04,,47.59359,-54.27349
2017-11-19 07:20:00+00:00,304.0,296.0,5.36,6.85,,47.59359,-54.27349
2017-11-19 07:30:00+00:00,311.0,318.0,4.36,5.4,,47.59359,-54.27349
2017-11-19 07:40:00+00:00,310.0,294.0,6.28,9.07,,47.59359,-54.27349
2017-11-19 07:50:00+00:00,308.0,297.0,5.45,7.2,,47.59359,-54.27349
2017-11-19 08:00:00+00:00,322.0,333.0,5.39,6.63,,47.59359,-54.27349
2017-11-19 08:10:00+00:00,316.0,323.0,4.83,5.61,,47.59359,-54.27349
2017-11-19 08:20:00+00:00,321.0,317.0,5.8,7.31,,47.59359,-54.27349
2017-11-19 08:30:00+00:00,341.0,337.0,2.55,3.34,,47.59359,-54.27349
2017-11-19 08:40:00+00:00,312.0,304.0,4.13,4.98,,47.59359,-54.27349
2017-11-19 08:50:00+00:00,316.0,313.0,5.0,6.46,,47.59359,-54.27349
2017-11-19 09:00:00+00:00,341.0,23.0,2.71,3.93,,47.59359,-54.27349
2017-11-19 09:10:00+00:00,313.0,313.0,5.5,7.39,,47.59359,-54.27349
2017-11-19 09:20:00+00:00,317.0,324.0,4.7,6.2,,47.59359,-54.27349
2017-11-19 09:30:00+00:00,306.0,308.0,5.68,6.83,,47.59359,-54.27349
2017-11-19 09:40:00+00:00,303.0,298.0,5.34,7.9,,47.59359,-54.27349
2017-11-19 09:50:00+00:00,324.0,325.0,5.04,6.34,,47.59359,-54.27349
2017-11-19 10:00:00+00:00,314.0,317.0,3.94,4.96,,47.59359,-54.27349
2017-11-19 10:10:00+00:00,307.0,304.0,5.07,6.63,,47.59359,-54.27349
2017-11-19 10:20:00+00:00,313.0,312.0,5.58,6.88,,47.59359,-54.27349
2017-11-19 10:30:00+00:00,319.0,334.0,4.35,5.44,,47.59359,-54.27349
2017-11-19 10:40:00+00:00,318.0,314.0,4.01,4.48,,47.59359,-54.27349
2017-11-19 10:50:00+00:00,306.0,301.0,3.62,5.68,,47.59359,-54.27349
2017-11-19 11:00:00+00:00,313.0,321.0,6.28,7.77,,47.59359,-54.27349
2017-11-19 11:10:00+00:00,336.0,333.0,3.48,4.02,,47.59359,-54.27349
2017-11-19 11:20:00+00:00,319.0,314.0,6.0,7.06,,47.59359,-54.27349
2017-11-19 11:30:00+00:00,303.0,302.0,5.02,6.09,,47.59359,-54.27349
2017-11-19 11:40:00+00:00,309.0,308.0,5.38,6.45,,47.59359,-54.27349
2017-11-19 11:50:00+00:00,311.0,300.0,6.62,8.78,,47.59359,-54.27349
2017-11-19 12:00:00+00:00,303.0,295.0,6.53,8.71,,47.59359,-54.27349
2017-11-19 12:10:00+00:00,305.0,306.0,6.42,7.91,,47.59359,-54.27349
2017-11-19 12:20:00+00:00,320.0,324.0,6.56,8.2,,47.59359,-54.27349
2017-11-19 12:30:00+00:00,315.0,328.0,6.45,9.31,,47.59359,-54.27349
2017-11-19 12:40:00+00:00,319.0,325.0,7.01,9.07,,47.59359,-54.27349
2017-11-19 12:50:00+00:00,327.0,323.0,9.3,10.82,,47.59359,-54.27349
2017-11-19 13:00:00+00:00,316.0,315.0,8.65,10.08,,47.59359,-54.27349
2017-11-19 13:10:00+00:00,318.0,316.0,8.7,10.34,,47.59359,-54.27349
2017-11-19 13:20:00+00:00,313.0,314.0,8.89,10.75,,47.59359,-54.27349
2017-11-19 13:30:00+00:00,310.0,306.0,10.26,13.3,,47.59359,-54.27349
2017-11-19 13:40:00+00:00,315.0,313.0,10.07,12.32,,47.59359,-54.27349
2017-11-19 13:50:00+00:00,316.0,309.0,7.62,11.01,,47.59359,-54.27349
2017-11-19 14:00:00+00:00,324.0,328.0,8.83,9.7,,47.59359,-54.27349
2017-11-19 14:10:00+00:00,321.0,323.0,8.99,10.79,,47.59359,-54.27349
2017-11-19 14:20:00+00:00,310.0,305.0,7.26,10.39,,47.59359,-54.27349
2017-11-19 14:30:00+00:00,318.0,313.0,8.61,10.05,,47.59359,-54.27349
2017-11-19 14:40:00+00:00,303.0,296.0,8.21,9.66,,47.59359,-54.27349
2017-11-19 14:50:00+00:00,314.0,306.0,7.97,9.28,,47.59359,-54.27349
2017-11-19 15:00:00+00:00,319.0,316.0,8.61,11.07,,47.59359,-54.27349
2017-11-19 15:10:00+00:00,307.0,307.0,7.97,9.51,,47.59359,-54.27349
2017-11-19 15:20:00+00:00,303.0,304.0,7.18,8.96,,47.59359,-54.27349
2017-11-19 15:30:00+00:00,303.0,292.0,7.15,8.7,,47.59359,-54.27349
2017-11-19 15:40:00+00:00,303.0,304.0,7.43,8.85,,47.59359,-54.27349
2017-11-19 15:50:00+00:00,310.0,309.0,6.52,7.36,,47.59359,-54.27349
2017-11-19 16:00:00+00:00,294.0,290.0,5.22,6.2,,47.59359,-54.27349
2017-11-19 16:10:00+00:00,288.0,288.0,4.92,5.82,,47.59359,-54.27349
2017-11-19 16:20:00+00:00,297.0,296.0,5.54,6.44,,47.59359,-54.27349
2017-11-19 16:30:00+00:00,288.0,299.0,3.7,4.24,,47.59359,-54.27349
2017-11-19 16:40:00+00:00,296.0,294.0,2.22,2.77,,47.59359,-54.27349
2017-11-19 16:50:00+00:00,288.0,291.0,2.22,2.61,,47.59359,-54.27349
2017-11-19 17:00:00+00:00,309.0,307.0,3.97,4.34,,47.59359,-54.27349
2017-11-19 17:10:00+00:00,316.0,313.0,3.55,4.01,,47.59359,-54.27349
2017-11-19 17:20:00+00:00,297.0,297.0,4.74,5.46,,47.59359,-54.27349
2017-11-19 17:30:00+00:00,280.0,281.0,2.95,3.51,,47.59359,-54.27349
2017-11-19 17:40:00+00:00,296.0,301.0,3.93,4.57,,47.59359,-54.27349
2017-11-19 17:50:00+00:00,275.0,274.0,4.43,5.0,,47.59359,-54.27349
2017-11-19 18:00:00+00:00,279.0,282.0,4.77,5.58,,47.59359,-54.27349
2017-11-19 18:10:00+00:00,277.0,281.0,5.26,5.74,,47.59359,-54.27349
2017-11-19 18:20:00+00:00,291.0,290.0,4.21,5.13,,47.59359,-54.27349
2017-11-19 18:30:00+00:00,303.0,305.0,4.19,4.99,,47.59359,-54.27349
2017-11-19 18:40:00+00:00,311.0,309.0,4.5,5.21,,47.59359,-54.27349
2017-11-19 18:50:00+00:00,312.0,314.0,4.33,5.59,,47.59359,-54.27349
2017-11-19 19:00:00+00:00,301.0,307.0,4.81,5.34,,47.59359,-54.27349
2017-11-19 19:10:00+00:00,298.0,302.0,4.74,5.08,,47.59359,-54.27349
2017-11-19 19:20:00+00:00,290.0,288.0,5.49,6.29,,47.59359,-54.27349
2017-11-19 19:30:00+00:00,298.0,296.0,5.97,6.44,,47.59359,-54.27349
2017-11-19 19:40:00+00:00,293.0,299.0,6.11,6.75,,47.59359,-54.27349
2017-11-19 19:50:00+00:00,301.0,300.0,6.53,7.66,,47.59359,-54.27349
2017-11-19 20:00:00+00:00,301.0,305.0,5.93,6.55,,47.59359,-54.27349
2017-11-19 20:10:00+00:00,305.0,307.0,5.72,6.57,,47.59359,-54.27349
2017-11-19 20:20:00+00:00,308.0,306.0,5.02,5.67,,47.59359,-54.27349
2017-11-19 20:30:00+00:00,304.0,305.0,5.73,6.32,,47.59359,-54.27349
2017-11-19 20:40:00+00:00,290.0,286.0,5.33,5.91,,47.59359,-54.27349
2017-11-19 20:50:00+00:00,287.0,295.0,4.05,4.96,,47.59359,-54.27349
2017-11-19 21:00:00+00:00,271.0,271.0,3.88,4.18,,47.59359,-54.27349
2017-11-19 21:10:00+00:00,267.0,269.0,5.79,6.55,,47.59359,-54.27349
2017-11-19 21:20:00+00:00,288.0,290.0,6.6,7.51,,47.59359,-54.27349
2017-11-19 21:30:00+00:00,282.0,286.0,5.78,6.33,,47.59359,-54.27349
2017-11-19 21:40:00+00:00,284.0,278.0,5.59,6.34,,47.59359,-54.27349
2017-11-19 21:50:00+00:00,285.0,291.0,5.76,6.45,,47.59359,-54.27349
2017-11-19 22:00:00+00:00,280.0,280.0,5.99,6.64,,47.59359,-54.27349
2017-11-19 22:10:00+00:00,284.0,286.0,6.7,8.54,,47.59359,-54.27349
2017-11-19 22:20:00+00:00,259.0,256.0,5.16,5.91,,47.59359,-54.27349
2017-11-19 22:30:00+00:00,270.0,278.0,6.03,6.64,,47.59359,-54.27349
2017-11-19 22:40:00+00:00,276.0,275.0,5.47,6.36,,47.59359,-54.27349
2017-11-19 22:50:00+00:00,268.0,268.0,5.29,5.96,,47.59359,-54.27349
2017-11-19 23:00:00+00:00,280.0,272.0,4.24,4.66,,47.59359,-54.27349
2017-11-19 23:10:00+00:00,254.0,265.0,4.27,4.83,,47.59359,-54.27349
2017-11-19 23:20:00+00:00,277.0,283.0,5.42,6.01,,47.59359,-54.27349
2017-11-19 23:30:00+00:00,263.0,265.0,5.16,5.62,,47.59359,-54.27349
2017-11-19 23:40:00+00:00,268.0,260.0,4.35,5.38,,47.59359,-54.27349
2017-11-19 23:50:00+00:00,259.0,258.0,3.62,4.21,,47.59359,-54.27349
